User: anonymous   Login
Location: Caltech
(34.1382°N, 118.1253°W)
Time: 15:34:36
(UTC-07:00)
Language:

ASTRO E2 - Orbit

View from above orbital plane
View from above orbital plane
View from above satellite
View from above satellite

Ground track
Ground track

The orbit data is extracted from the following two-line orbital elements,

1 28773U 05025A   15150.19320682  .00002344  00000-0  12569-3 0  9991
2 28773 031.3826 104.2387 0004845 040.0619 320.0383 15.12781225543700
Epoch (UTC): 30 May 2015 04:38:13
Eccentricity: 0.0004845
inclination: 31.3826°
perigee height: 524 km
apogee height: 531 km
right ascension of ascending node: 104.2387°
argument of perigee: 40.0619°
revolutions per day: 15.12781225
mean anomaly at epoch: 320.0383°
orbit number at epoch: 54370

The dashed part of the orbit path shows where the satellite is in the earth's shadow,  

DLR